Location: Plymouth
(43.7490°N, 87.9770°W)
Time: 11:00:15
(UTC-05:00)

Daily predictions for brighter satellites

Satellite Brightness Start Highest point End
(mag) Time Altitude Azimuth Time Altitude Azimuth Time Altitude Azimuth
ERS-1 Rocket 3.4 21:03:23 10° SE 21:08:14 50° ENE 21:13:06 10° N
Cosmos 2173 Rocket 4.0 21:03:10 10° N 21:09:22 74° E 21:15:37 10° SSE
Cosmos 2221 3.0 21:07:01 10° NNW 21:11:24 65° W 21:15:43 10° S
Cosmos 1408 Rocket 3.8 21:08:04 10° SSE 21:12:13 50° E 21:16:26 10° NNE
Cosmos 1242 Rocket 2.8 21:09:28 10° NNW 21:13:12 77° W 21:16:53 10° S
Cosmos 2061 Rocket 4.1 21:14:36 10° N 21:21:03 83° E 21:27:29 10° S
Cosmos 1867 4.5 21:18:46 10° SW 21:24:07 56° NW 21:29:31 10° NNE
Helios 1B rocket 2.8 21:20:19 10° N 21:24:28 71° WNW 21:28:34 10° SSW
MetOp-A 4.4 21:19:36 10° SSE 21:24:51 59° ENE 21:30:07 10° N
GPS 2-05 Rocket1 4.3 21:23:59 10° SW 21:26:03 17° S 21:27:53 11° SE
SAR-Lupe-1 4.3 21:24:44 10° S 21:28:19 74° WSW 21:31:57 10° NNW
Cosmos 1674 3.4 21:26:16 10° SSW 21:29:56 54° W 21:33:38 10° N
SL-14 R/B 3.7 21:28:20 10° SSE 21:32:05 43° E 21:35:49 10° NNE
ARGOS 3.5 21:28:09 10° SSE 21:33:25 55° ENE 21:38:41 10° N
Abrixas 2.5 21:31:22 10° SW 21:33:58 44° SSE 21:36:35 10° ENE
Cosmos 1500 Rocket 4.5 21:30:09 10° SSE 21:34:05 31° E 21:38:01 10° NNE
Tiangong 1 1.0 21:31:24 10° W 21:34:09 51° SSW 21:36:29 13° ESE
ERBS 2.6 21:31:38 10° NW 21:34:58 58° SW 21:37:55 13° SSE
Lacrosse 5 2.4 21:30:10 10° NW 21:35:04 51° SW 21:39:52 10° SSE
Cosmos 1725 Rocket 4.2 21:29:29 10° N 21:35:40 60° ENE 21:41:46 10° SSE
Cosmos 1603 3.9 21:30:45 10° NNW 21:36:24 72° WSW 21:41:58 10° SSE
Abrixas rocket 2.6 21:33:32 10° WNW 21:36:41 50° SSW 21:39:18 14° SE
SPOT 5 3.3 21:33:34 10° SSE 21:38:19 53° ENE 21:43:23 10° N
Cosmos 1455 4.2 21:37:43 10° NNE 21:40:01 15° ENE 21:42:15 10° ESE
Cosmos 1802 Rocket 4.2 21:36:41 10° NNW 21:42:49 73° W 21:48:57 10° S
EO 1 Delta rocket 4.2 21:43:00 12° SSE 21:47:03 50° ENE 21:51:40 10° N
Cosmos 1328 3.8 21:43:41 10° S 21:47:41 66° E 21:51:42 10° NNE
Cosmos 1943 3.3 21:42:37 10° NNW 21:48:18 74° ENE 21:53:12 14° SSE
Cosmos 1151 Rocket 3.6 21:44:58 10° N 21:49:10 43° ENE 21:52:26 15° SE
RESURS DK-1 3.4 21:45:29 10° NW 21:49:25 41° WSW 21:53:20 10° S
H-2A R/B 2.5 21:46:14 13° SE 21:50:51 51° ENE 21:56:08 10° N
SL-16 R/B 4.5 21:48:15 10° WNW 21:52:06 19° W 21:55:56 10° SW
Cosmos 1328 Rocket 3.5 21:47:51 10° N 21:52:12 85° E 21:56:12 12° S
Cosmos 1766 Rocket 4.3 21:48:20 10° SSW 21:52:35 55° WNW 21:56:52 10° N
Cosmos 332 Rocket 4.4 21:50:48 10° NNW 21:55:37 56° WSW 22:00:24 10° S
BREEZE-M DEB (TANK) 3.5 21:53:48 10° WNW 21:55:56 36° N 22:00:55 10° ENE
Cosmos 2058 3.6 21:53:41 15° SSE 21:56:47 38° E 22:00:43 10° NNE
Cosmos 304 Rocket 4.5 21:53:03 10° N 21:57:37 41° ENE 22:00:58 17° SE
Terra 3.0 21:54:55 14° ESE 21:58:11 29° ENE 22:02:15 10° N
Cosmos 2016 Rocket 4.4 21:54:51 10° NNW 22:01:01 63° W 22:07:04 10° S
Cosmos 1515 Rocket 3.5 21:57:29 10° N 22:01:51 78° E 22:05:19 16° SSE
Meteor 2-10 4.4 21:59:58 10° NNW 22:05:38 78° W 22:11:03 12° S
H-2A R/B 3.5 22:04:24 15° ESE 22:06:52 24° ENE 22:10:16 10° NNE
Cosmos 1356 3.5 22:05:30 16° S 22:08:07 61° E 22:11:35 10° NNE
Cosmos 1743 Rocket 3.6 22:03:48 10° S 22:08:07 83° W 22:12:28 10° N
USA 245 3.7 22:09:16 16° S 22:12:13 69° W 22:16:53 10° NNW
Cosmos 1763 Rocket 3.8 22:07:55 10° NNW 22:12:58 62° WSW 22:17:03 15° S
Cosmos 841 Rocket 3.6 22:08:55 10° NNW 22:14:11 78° WSW 22:18:05 18° SSE
Cosmos 1354 Rocket 4.1 22:09:52 10° S 22:14:54 55° ESE 22:20:01 10° NNE
Meteor 2-12 Rocket 4.5 22:09:57 10° N 22:16:01 65° E 22:20:24 19° SSE
Nimbus 7 Rocket 4.4 22:12:21 10° NNE 22:18:23 74° ESE 22:24:19 10° S
Cosmos 1626 2.2 22:17:25 22° SSE 22:19:35 58° E 22:23:16 10° NNE
CZ-4C R/B 3.0 22:17:30 21° SSE 22:19:41 27° ESE 22:24:27 10° NE
Cosmos 1726 3.9 22:17:58 10° NNW 22:21:07 27° W 22:24:15 10° SSW
Cosmos 1486 Rocket 4.4 22:18:18 10° SSW 22:23:33 66° WNW 22:28:51 10° NNE
Cosmos 2233 Rocket 3.9 22:17:33 10° N 22:23:48 86° E 22:28:32 18° S
Cosmos 2228 Rocket 4.0 22:21:29 10° NNW 22:25:53 46° W 22:29:53 12° SSW
Cosmos 1703 3.2 22:29:54 22° S 22:32:26 82° E 22:36:27 10° N
USA 234 3.2 22:29:15 10° NE 22:35:43 60° SE 22:42:09 10° SW
Cosmos 2151 3.5 22:36:11 13° SSW 22:40:00 59° W 22:44:17 10° N
DMSP B5D2-2 4.0 22:35:55 10° NNE 22:41:10 81° ESE 22:45:03 18° S
NOSS 3 (A) 4.3 22:40:27 32° SSW 22:41:35 79° SE 22:44:48 10° NE
Cosmos 2263 Rocket 2.6 22:38:38 10° SW 22:44:09 63° WNW 22:49:43 10° NNE
Sich 1 3.8 22:43:19 29° ESE 22:44:27 34° E 22:48:20 10° NNE
SL-19 R/B 4.4 22:39:44 10° NNE 22:45:02 54° ESE 22:48:07 26° SSE
SPOT 1/Viking Rocket 4.2 22:42:41 18° S 22:46:21 50° W 22:51:23 10° NNW
H-2A ROCKET BODY 4.1 22:53:14 10° SSW 22:58:07 29° SSE 23:13:48 10° ESE
Cosmos 540 Rocket 3.7 22:58:23 10° NNW 23:03:28 60° WSW 23:05:54 30° S
Cosmos 1707 Rocket 3.5 22:59:28 10° N 23:03:58 77° E 23:05:32 40° SSE
SL-24 R/B - RUBIN 2 4.2 22:59:33 10° NNW 23:05:05 61° NE 23:07:23 31° ESE
CZ-4B R/B 3.7 23:01:44 10° NNE 23:06:55 55° E 23:08:50 35° SSE
deb Chang Zheng 4 3.5 23:03:08 10° NNE 23:07:32 75° ESE 23:09:09 38° S
COSMOS 2406 3.4 23:02:46 10° NNW 23:08:25 61° ENE 23:11:03 31° SE
Abrixas 3.8 23:06:13 10° W 23:08:47 37° NNW 23:11:17 10° ENE
IGS 5A 3.9 23:10:07 33° SSW 23:11:41 53° W 23:15:46 10° NNW
Cosmos 968 Rocket 3.5 23:12:06 35° S 23:14:10 62° ESE 23:19:24 10° NNE
ALOS 2 4.4 23:13:32 17° E 23:15:03 20° ENE 23:18:13 10° NNE
Cosmos 1455 3.2 23:12:18 10° NNW 23:15:54 39° W 23:17:15 28° SW
Cosmos 1844 Rocket 2.8 23:14:16 35° SSE 23:16:18 54° ESE 23:21:45 10° NNE
Cosmos 292 Rocket 4.0 23:13:52 10° NNW 23:18:35 57° ENE 23:20:08 38° SE
Cosmos 1666 Rocket 3.5 23:19:14 42° S 23:20:43 90° SSE 23:25:12 10° N
Cosmos 2084 Rocket 3.0 23:18:10 10° NW 23:21:59 77° SW 23:22:30 63° S
Cosmos 2034 Rocket 4.0 23:16:54 10° N 23:23:17 83° E 23:26:10 35° SSE
PSLV R/B 3.7 23:26:03 47° W 23:26:03 47° W 23:28:36 10° NNW
Cosmos 1891 Rocket 4.4 23:20:26 10° N 23:26:31 84° W 23:29:14 35° S
SL-27 R/B 4.3 23:25:50 10° NNE 23:28:17 19° ENE 23:28:38 18° ENE
Cosmos 1862 Rocket 4.2 23:24:18 10° N 23:28:31 43° ENE 23:29:23 38° ESE
Cosmos 1933 Rocket 4.1 23:29:45 39° ESE 23:30:11 40° E 23:34:17 10° NNE
H-2A R/B 4.0 23:26:52 12° SW 23:30:32 23° W 23:34:46 10° NW
DELTA 2 DEB (DPAF) 4.1 23:29:35 50° S 23:30:46 86° W 23:35:15 10° NNW
Cosmos 1805 Rocket 4.4 23:29:18 25° SW 23:31:24 45° WNW 23:35:35 10° N
Cosmos 1633 Rocket 3.0 23:32:56 47° SSW 23:34:09 79° W 23:38:32 10° N
Terra 3.1 23:33:48 23° SW 23:35:50 33° W 23:40:07 10° NNW
In-Cosmos 22 Rocket 4.5 23:36:32 40° SE 23:38:03 51° E 23:43:30 10° NNE
ATLAS 3B R/B 4.4 23:39:57 16° ESE 23:40:26 16° ESE 23:44:27 10° ENE
Meteor 2-10 Rocket 3.7 23:36:29 10° N 23:41:55 68° ENE 23:43:45 42° SE
H-2A R/B 3.3 23:41:32 27° SW 23:42:45 32° W 23:46:32 10° NW
SL-19 R/B 4.3 23:43:45 51° NW 23:43:45 51° NW 23:46:13 10° NNW
CZ-2C R/B 3.1 23:39:00 10° NNE 23:43:58 41° E 23:44:54 38° ESE
SME Rocket 3.4 23:48:54 47° SW 23:49:42 56° W 23:54:35 10° NNW
Meteor 2-3 Rocket 4.4 23:48:29 34° SE 23:49:55 40° E 23:55:18 10° NNE
Cosmos 1892 3.8 23:50:42 32° E 23:50:42 32° E 23:53:58 10° NNE
